Погода в Алексеевке

Россия / Саратовская область     52°18′24″N   48°01′37″E
темп.,
°C
ветер,
м/с
пор.,
м/с
влажн.,
%
обл.,
%
осадки,
мм/ч
давл.,
гПа
погр.,
м
6 марта, сб
сб601:00−8сз23850 0.0 101321
04:00−9зсз228635 0.0 101521
07:00−11зсз228958 0.0 101521
10:00−8сз228978 0.0 101784
13:00−5ссв138096 0.0 1016343
16:00−4св338198 0.0 1016415
19:00−8всв2390100 0.0 101525
22:00−9ссв2390100 0.0 101525
7 марта, вс
вс701:00−10ссв3384100 0.0 101426
04:00−13с238266 0.0 101421
07:00−14зсз12840 0.0 101420
10:00−11з23890 0.0 1015104
13:00−8зюз46870 0.0 1013373
16:00−7юз598819 0.0 1012474
19:00−8ююз61291100 0.0 1011320
22:00−6ююз91786100 0.0 1008661
8 марта, пн
пн801:00−5ююз111894100 0.9 1004865
04:00−4юз101794100 2.0 1003814
07:00−3з5993100 0.6 1003336
10:00−4юз379375 0.6 1004274
13:00−1юз101396100 0.9 1002944
16:000юз101689100 1.4 10001144
19:00−2з111692100 1.4 1001828
22:00−9зюз7148266 1.4 1004369
9 марта, вт
вт901:00−9з714830 0.0 1006358
04:00−11з612890 0.0 1008264
07:00−14зюз47936 0.0 1010118
10:00−11з48908 0.0 1012282
13:00−9з578617 0.0 1013496
16:00−8з578647 0.0 1013573
19:00−11з459194 0.0 101361
22:00−13зсз459094 0.0 101584
10 марта, ср
ср1001:00−15сз339084 0.0 101526
04:00−16зсз349183 0.0 101644
07:00−19зсз349210 0.0 101740
10:00−17зсз48885 0.0 1019300
13:00−14зсз47838 0.0 1020518
16:00−13з468233 0.0 1020577
19:00−15з338891 0.0 102043
22:00−16зсз229196 0.0 102120